When you browse on this site, cookies collect data to enhance your experience and personalize the content and advertising you see.
Visit our Privacy Policy to learn more. By continuing to use the site, you agree to this use of cookies and data.
  • In Spain
  • List of Countries
  • For 7 days
  • Water Temperature
  • Weather Map
  • Weather Widgets
  • user-avatar
    Login

    Hourly Weather Gitega

    Today, 4 April, Saturday

    Time Temperature Precipitation Wind Pressure Humidity
    00:00 +16°C° 0 mm 1 mps 622 mmHg 96%
    01:00 +16°C° 0 mm 1 mps 622 mmHg 97%
    02:00 +16°C° 0 mm 1 mps 622 mmHg 97%
    03:00 +16°C° 0 mm 1 mps 622 mmHg 97%
    04:00 +16°C° 0 mm 1 mps 622 mmHg 96%
    05:00 +16°C° 0 mm 1 mps 622 mmHg 96%
    06:00 +18°C° 0 mm 1 mps 623 mmHg 94%
    07:00 +19°C° 0 mm 1 mps 624 mmHg 92%
    08:00 +20°C° 0 mm 1 mps 625 mmHg 90%
    09:00 +21°C° 0.1 mm 1 mps 625 mmHg 86%
    10:00 +22°C° 0.1 mm 1 mps 625 mmHg 83%
    11:00 +21°C° 0.1 mm 2 mps 625 mmHg 79%
    12:00 +23°C° 0.4 mm 1 mps 624 mmHg 77%
    13:00 +24°C° 0.4 mm 1 mps 624 mmHg 76%
    14:00 +24°C° 0.4 mm 1 mps 623 mmHg 74%
    15:00 +24°C° 0.6 mm 1 mps 623 mmHg 77%
    16:00 +24°C° 0.6 mm 1 mps 623 mmHg 80%
    17:00 +23°C° 0.6 mm 1 mps 623 mmHg 83%
    18:00 +22°C° 1.2 mm 1 mps 623 mmHg 86%
    19:00 +18°C° 1.2 mm 0 mps 623 mmHg 88%
    20:00 +17°C° 1.2 mm 0 mps 623 mmHg 91%
    21:00 +17°C° 0.5 mm 0 mps 623 mmHg 91%
    22:00 +17°C° 0.5 mm 0 mps 623 mmHg 90%
    23:00 +17°C° 0.5 mm 0 mps 623 mmHg 90%

    Tomorrow, 5 April, Sunday

    Time Temperature Precipitation Wind Pressure Humidity
    00:00 +17°C° 0.2 mm 0 mps 623 mmHg 91%
    01:00 +17°C° 0.2 mm 0 mps 623 mmHg 91%
    02:00 +17°C° 0.2 mm 0 mps 623 mmHg 92%
    03:00 +17°C° 0.5 mm 0 mps 623 mmHg 92%
    04:00 +18°C° 0.5 mm 1 mps 623 mmHg 93%
    05:00 +18°C° 0.5 mm 1 mps 623 mmHg 93%
    06:00 +19°C° 0.2 mm 1 mps 623 mmHg 91%
    07:00 +20°C° 0.2 mm 1 mps 624 mmHg 90%
    08:00 +20°C° 0.2 mm 1 mps 625 mmHg 88%
    09:00 +22°C° 0.9 mm 1 mps 625 mmHg 83%
    10:00 +23°C° 0.9 mm 1 mps 625 mmHg 79%
    11:00 +24°C° 0.9 mm 1 mps 625 mmHg 74%
    12:00 +24°C° 1.5 mm 1 mps 625 mmHg 74%
    13:00 +25°C° 1.5 mm 1 mps 624 mmHg 74%
    14:00 +25°C° 1.5 mm 1 mps 624 mmHg 74%
    15:00 +24°C° 1.4 mm 1 mps 624 mmHg 78%
    16:00 +24°C° 1.4 mm 1 mps 623 mmHg 82%
    17:00 +21°C° 1.4 mm 0 mps 623 mmHg 86%
    18:00 +20°C° 0.6 mm 0 mps 623 mmHg 86%
    19:00 +19°C° 0.6 mm 0 mps 623 mmHg 87%
    20:00 +17°C° 0.6 mm 0 mps 623 mmHg 88%
    21:00 +17°C° 0 mm 0 mps 623 mmHg 88%
    22:00 +17°C° 0 mm 0 mps 623 mmHg 89%
    23:00 +16°C° 0 mm 0 mps 623 mmHg 90%

    Day after tomorrow, 6 April, Monday

    Time Temperature Precipitation Wind Pressure Humidity
    00:00 +16°C° 0 mm 0 mps 623 mmHg 90%
    01:00 +18°C° 0 mm 1 mps 623 mmHg 90%
    02:00 +19°C° 0 mm 1 mps 623 mmHg 90%
    03:00 +19°C° 0 mm 1 mps 623 mmHg 89%
    04:00 +19°C° 0 mm 1 mps 623 mmHg 89%
    05:00 +18°C° 0 mm 1 mps 622 mmHg 88%
    06:00 +19°C° 0 mm 1 mps 623 mmHg 87%
    07:00 +17°C° 0 mm 0 mps 624 mmHg 87%
    08:00 +18°C° 0 mm 0 mps 625 mmHg 86%
    09:00 +19°C° 0.1 mm 0 mps 625 mmHg 81%
    10:00 +23°C° 0.1 mm 1 mps 625 mmHg 75%
    11:00 +24°C° 0.1 mm 1 mps 625 mmHg 70%
    12:00 +25°C° 0.4 mm 1 mps 625 mmHg 69%
    13:00 +25°C° 0.4 mm 1 mps 624 mmHg 68%
    14:00 +25°C° 0.4 mm 2 mps 624 mmHg 67%
    15:00 +25°C° 0.7 mm 1 mps 623 mmHg 72%
    16:00 +24°C° 0.7 mm 1 mps 623 mmHg 77%
    17:00 +23°C° 0.7 mm 1 mps 623 mmHg 83%
    18:00 +22°C° 0.7 mm 1 mps 623 mmHg 85%
    19:00 +18°C° 0.7 mm 0 mps 623 mmHg 87%
    20:00 +17°C° 0.7 mm 0 mps 623 mmHg 89%
    21:00 +16°C° 0 mm 0 mps 623 mmHg 89%
    22:00 +18°C° 0 mm 1 mps 623 mmHg 89%
    23:00 +18°C° 0 mm 1 mps 623 mmHg 89%

    7 April, Tuesday

    Time Temperature Precipitation Wind Pressure Humidity
    00:00 +18°C° 0 mm 1 mps 623 mmHg 90%
    01:00 +18°C° 0 mm 1 mps 623 mmHg 90%
    02:00 +18°C° 0 mm 1 mps 623 mmHg 90%
    03:00 +18°C° 0 mm 1 mps 623 mmHg 90%
    04:00 +18°C° 0 mm 1 mps 623 mmHg 90%
    05:00 +18°C° 0 mm 1 mps 623 mmHg 89%
    06:00 +19°C° 0 mm 1 mps 623 mmHg 88%
    07:00 +18°C° 0 mm 0 mps 624 mmHg 88%
    08:00 +18°C° 0 mm 0 mps 625 mmHg 87%
    09:00 +20°C° 0.1 mm 0 mps 625 mmHg 81%
    10:00 +21°C° 0.1 mm 0 mps 626 mmHg 75%
    11:00 +23°C° 0.1 mm 0 mps 626 mmHg 70%
    12:00 +25°C° 0.3 mm 1 mps 625 mmHg 65%
    13:00 +26°C° 0.3 mm 1 mps 625 mmHg 61%
    14:00 +27°C° 0.3 mm 1 mps 624 mmHg 57%
    15:00 +26°C° 0.4 mm 1 mps 624 mmHg 64%
    16:00 +25°C° 0.4 mm 1 mps 623 mmHg 72%
    17:00 +24°C° 0.4 mm 1 mps 623 mmHg 79%
    18:00 +23°C° 0.6 mm 1 mps 623 mmHg 82%
    19:00 +19°C° 0.6 mm 0 mps 623 mmHg 85%
    20:00 +17°C° 0.6 mm 0 mps 623 mmHg 89%
    21:00 +17°C° 0.4 mm 0 mps 623 mmHg 89%
    22:00 +17°C° 0.4 mm 0 mps 623 mmHg 90%
    23:00 +17°C° 0.4 mm 0 mps 624 mmHg 91%

    8 April, Wednesday

    Time Temperature Precipitation Wind Pressure Humidity
    00:00 +19°C° 0.4 mm 1 mps 623 mmHg 90%
    01:00 +19°C° 0.4 mm 1 mps 623 mmHg 90%
    02:00 +19°C° 0.4 mm 1 mps 623 mmHg 90%
    03:00 +19°C° 0.1 mm 1 mps 623 mmHg 90%
    04:00 +17°C° 0.1 mm 0 mps 623 mmHg 90%
    05:00 +17°C° 0.1 mm 0 mps 623 mmHg 90%
    06:00 +17°C° 0.1 mm 0 mps 623 mmHg 89%
    07:00 +18°C° 0.1 mm 0 mps 624 mmHg 89%
    08:00 +18°C° 0.1 mm 0 mps 625 mmHg 88%
    09:00 +18°C° 0.3 mm 0 mps 625 mmHg 87%
    10:00 +19°C° 0.3 mm 0 mps 625 mmHg 87%
    11:00 +19°C° 0.3 mm 0 mps 625 mmHg 86%
    12:00 +20°C° 0.5 mm 0 mps 624 mmHg 83%
    13:00 +21°C° 0.5 mm 0 mps 624 mmHg 81%
    14:00 +21°C° 0.5 mm 0 mps 623 mmHg 78%
    15:00 +21°C° 1.2 mm 0 mps 623 mmHg 80%
    16:00 +21°C° 1.2 mm 0 mps 623 mmHg 82%
    17:00 +21°C° 1.2 mm 0 mps 623 mmHg 84%
    18:00 +20°C° 0.2 mm 0 mps 623 mmHg 85%
    19:00 +19°C° 0.2 mm 0 mps 623 mmHg 86%
    20:00 +18°C° 0.2 mm 0 mps 623 mmHg 87%
    21:00 +19°C° 0.2 mm 1 mps 623 mmHg 89%
    22:00 +19°C° 0.2 mm 1 mps 623 mmHg 91%
    23:00 +19°C° 0.2 mm 1 mps 623 mmHg 93%

    9 April, Thursday

    Time Temperature Precipitation Wind Pressure Humidity
    00:00 +18°C° 0.1 mm 1 mps 623 mmHg 92%
    01:00 +18°C° 0.1 mm 1 mps 622 mmHg 92%
    02:00 +18°C° 0.1 mm 1 mps 622 mmHg 92%
    03:00 +18°C° 0 mm 1 mps 622 mmHg 92%
    04:00 +15°C° 0 mm 0 mps 622 mmHg 91%
    05:00 +15°C° 0 mm 0 mps 622 mmHg 90%
    06:00 +16°C° 0 mm 0 mps 623 mmHg 88%
    07:00 +17°C° 0 mm 0 mps 624 mmHg 86%
    08:00 +18°C° 0 mm 0 mps 625 mmHg 83%
    09:00 +22°C° 0.1 mm 1 mps 625 mmHg 79%
    10:00 +23°C° 0.1 mm 1 mps 625 mmHg 75%
    11:00 +24°C° 0.1 mm 2 mps 625 mmHg 71%
    12:00 +25°C° 0.3 mm 2 mps 625 mmHg 70%
    13:00 +25°C° 0.3 mm 2 mps 624 mmHg 70%
    14:00 +25°C° 0.3 mm 2 mps 623 mmHg 69%
    15:00 +25°C° 0.6 mm 1 mps 623 mmHg 74%
    16:00 +24°C° 0.6 mm 1 mps 623 mmHg 79%
    17:00 +23°C° 0.6 mm 1 mps 622 mmHg 84%
    18:00 +22°C° 1.1 mm 1 mps 622 mmHg 86%
    19:00 +20°C° 1.1 mm 1 mps 622 mmHg 88%
    20:00 +17°C° 1.1 mm 0 mps 622 mmHg 90%
    21:00 +17°C° 0.3 mm 0 mps 622 mmHg 89%
    22:00 +17°C° 0.3 mm 0 mps 622 mmHg 89%
    23:00 +17°C° 0.3 mm 0 mps 622 mmHg 89%
    Show more